Regional Weather Roundup
Issued by NWS

Home | Current Version | Previous Version | Graphics & Text | Print | Product List | Glossary On
Versions: 1 2 3 4 5 6 7 8 9 10 11 12 13 14 15 16 17 18 19 20 21 22 23 24 25 26 27 28 29 30 31 32 33 34 35 36 37 38 39 40 41 42 43 44 45 46 47 48 49 50
000
ASUS44 KMEG 281500
RWRTN
TENNESSEE HOURLY STATE WEATHER ROUNDUP
NATIONAL WEATHER SERVICE MEMPHIS TN
900 AM CST SUN DEC 28 2014

TNZ002-004-019-021-049-052-054-088>092-281600-
WEST TENNESSEE

CITY           SKY/WX    TMP DP  RH WIND       PRES   REMARKS
MEMPHIS INTL   CLOUDY    40  36  86 NE10      30.20R WCI  33
NWS MEMPHIS      N/A     39 N/A N/A MISG        N/A
JACKSON        CLOUDY    39  36  89 N8        30.21R WCI  33
DYERSBURG      CLOUDY    37  25  60 N8        30.22F WCI  31
UNION CITY     CLOUDY    36  36 100 N9        30.19F WCI  29
PARIS          CLOUDY    36  34  93 N8        30.19R WCI  29
LEXINGTON      CLOUDY    39  37  93 VRB5      30.15F
SAVANNAH       CLOUDY    39  39 100 N8        30.18R WCI  34
$$

TNZ008-025-027-028-033-062-065-066-281600-
NORTH MIDDLE TENNESSEE

CITY           SKY/WX    TMP DP  RH WIND       PRES   REMARKS
NASHVILLE      LGT RAIN  41  39  93 N7        30.18R
CLARKSVILLE    CLOUDY    39  35  86 N7        30.18F WCI  34
COOKEVILLE     CLOUDY    45  45 100 N5        30.11S
CROSSVILLE     CLOUDY    49  46  90 NW5       30.11S
$$

TNZ061-075-076-078-094-096-097-281600-
SOUTH MIDDLE TENNESSEE

CITY           SKY/WX    TMP DP  RH WIND       PRES   REMARKS
FAYETTEVILLE   CLOUDY    48  46  93 N8        30.10F
TULLAHOMA      CLOUDY    43  43 100 N6        30.12S
WINCHESTER     CLOUDY    48  48 100 N7        30.11S
SHELBYVILLE    CLOUDY    43  43 100 N9        30.15S
$$

TNZ017-018-042-046-047-281600-
NORTHEAST TENNESSEE

CITY           SKY/WX    TMP DP  RH WIND       PRES   REMARKS
TRI CITIES     CLOUDY    49  42  77 VRB3      30.10R
ELIZABETHTON   CLOUDY    46  37  71 CALM      30.09R
$$

TNZ012-013-036-069-073-074-281600-
CENTRAL EAST TENNESSEE

CITY           SKY/WX    TMP DP  RH WIND       PRES   REMARKS
KNOXVILLE      RAIN      47  47 100 CALM      30.09R FOG
OAK RIDGE      LGT RAIN  52  51  97 CALM      30.10R FOG
GATLINBURG     CLOUDY    45  43  93 CALM      30.08R
$$

TNZ083-085-099-281600-
SOUTHEAST TENNESSEE

CITY           SKY/WX    TMP DP  RH WIND       PRES   REMARKS
CHATTANOOGA    LGT RAIN  54  53  97 CALM      30.09R FOG
$$

SKY/WX REPORTED AS FAIR MEANS FEW OR NO CLOUDS BELOW
12 THOUSAND FEET.



USA.gov is the U.S. government's official web portal to all federal, state and local government web resources and services.